Regional Weather Roundup
Issued by NWS Cleveland, OH

Home | Current Version | Previous Version | Graphics & Text | Print | Product List | Glossary On
Versions: 1 2 3 4 5 6 7 8 9 10 11 12 13 14 15 16 17 18 19 20 21 22 23 24 25 26 27 28 29 30 31 32 33 34 35 36 37 38 39 40 41 42 43 44 45 46 47 48 49 50
000
ASUS41 KCLE 220810
RWRCLE
OHIO REGIONAL WEATHER ROUNDUP
NATIONAL WEATHER SERVICE CLEVELAND, OH
300 AM EST WED FEB 22 2017

NOTE: "FAIR" INDICATES FEW OR NO CLOUDS BELOW 12,000 FEET WITH NO
SIGNIFICANT WEATHER AND/OR OBSTRUCTIONS TO VISIBILITY.

OHZ001>008-015>018-024>027-034-035-043-044-220900-
   NORTHWEST OHIO

CITY           SKY/WX    TMP DP  RH WIND       PRES   REMARKS
DEFIANCE       CLOUDY    52  49  89 S7        29.88F
FINDLAY        CLOUDY    53  47  79 SW3       29.89F
TOLEDO EXPRESS MOCLDY    49  48  97 S5        29.87F
TOLEDO EXEC    CLOUDY    52  49  89 S7        29.89S
LIMA           CLOUDY    55  54  96 S9        29.91S FOG
$$

OHZ009>014-019>023-028>033-038-089-220900-
   NORTHEAST OHIO

CITY           SKY/WX    TMP DP  RH WIND       PRES   REMARKS
CLE-HOPKINS    CLOUDY    54  46  74 SW3       29.94S
CLE-LAKEFRONT  CLOUDY    57  47  69 S10       29.90S
CUY CO. ARPT   NOT AVBL
LORAIN-ELYRIA  CLOUDY    50  44  80 CALM      29.92S
ASHTABULA      CLOUDY    49  44  83 S3        29.92S
AKRON-CANTON   CLOUDY    56  46  69 W6        29.92F
WOOSTER        PTCLDY    49  45  86 CALM      29.92F
MANSFIELD      PTCLDY    53  51  93 S6        29.92F
YOUNGSTOWN     CLOUDY    54  45  71 SW6       29.94S
$$

OHZ042-051>053-060>062-070>072-077>081-220900-
  SOUTHWEST OHIO

CITY           SKY/WX    TMP DP  RH WIND       PRES   REMARKS
CINC-COVINGTON CLOUDY    56  55  97 S7        29.92F FOG
CINC-LUNKEN    LGT RAIN  54  54 100 CALM      29.94F FOG
HAMILTON       FOG       54  54 100 CALM      29.94S VSB 1
DAYTON         CLOUDY    54  53  97 S8        29.94S FOG
WRIGHT-PAT AFB CLOUDY    53  53 100 S5        29.93S
DAYTON GENERAL LGT RAIN  54  53  97 S3        29.92F FOG
WILMINGTON     CLOUDY    53  52  96 SW7       29.93F FOG
$$

OHZ036-037-039>041-045>050-054>059-063>069-073>076-082>088-220900-
  CENTRAL AND SOUTHEAST OHIO

CITY           SKY/WX    TMP DP  RH WIND       PRES   REMARKS
COLUMBUS       CLOUDY    55  53  93 CALM      29.92F
OSU AIRPORT    CLOUDY    54  53  97 S5        29.92S
BOLTON FIELD   CLOUDY    52  51  96 SW5       29.94S
RICKENBACK AFB CLOUDY    51  51 100 CALM      29.93S FOG
NEWARK         CLOUDY    54  50  86 S3        29.92F
MARION         CLOUDY    53  50  89 CALM      29.92F
LANCASTER      CLOUDY    52  50  93 CALM      29.93F FOG
ZANESVILLE     CLOUDY    53  50  89 CALM      29.92F
NEW PHILLY     NOT AVBL
$$




USA.gov is the U.S. government's official web portal to all federal, state and local government web resources and services.